Location: *
(42.0175°N, 9.4056°E)
Time: 15:21:40
(UTC+00:00)

Cosmos 2219 Rocket - Pass Details

Date: 25 August 2019
Orbit: 830 x 845 km, 71.0° (Epoch: 17 September)

Event Time Altitude Azimuth Distance (km) Brightness Sun altitude
Rises 21:41:50 0° 348° (NNW) 3,384 6.3 -32.3°
Reaches altitude 10° 21:45:28 10° 12° (NNE) 2,445 5.1 -32.7°
Maximum altitude 21:48:33 15° 46° (NE) 2,118 4.4 -33.0°
Enters shadow 21:48:39 15° 47° (NE) 2,119 4.4 -33.0°
